Wetterdaten: Mittwoch, 16.10.2013
Datum Zeit Temperatur Luftfeuchte Luftdruck Regen Wind Richtung Richtung Taupunkt Windchill Windben
16.10.2013 00:00 6,0 C 94 % 1013,8 hPa 0,7 l/m 1,4 km/h (1 Bft) NO 45 5,1 C 6,3 C 3,2 km/h (1 Bft)
16.10.2013 00:05 6,0 C 94 % 1013,8 hPa 0,0 l/m 1,6 km/h (1 Bft) O 90 5,1 C 6,2 C 2,4 km/h (1 Bft)
16.10.2013 00:10 6,0 C 94 % 1013,7 hPa 0,7 l/m 1,0 km/h (0 Bft) O 90 5,1 C 6,2 C 0,0 km/h (0 Bft)
16.10.2013 00:15 5,9 C 95 % 1013,7 hPa 0,7 l/m 0,6 km/h (0 Bft) NO 45 5,2 C 6,2 C 2,9 km/h (1 Bft)
16.10.2013 00:20 5,7 C 95 % 1013,7 hPa 0,7 l/m 1,1 km/h (1 Bft) O 90 5,0 C 6,1 C 6,1 km/h (2 Bft)
16.10.2013 00:25 5,6 C 95 % 1013,7 hPa 0,0 l/m 1,6 km/h (1 Bft) O 90 4,9 C 5,9 C 3,9 km/h (1 Bft)
16.10.2013 00:30 5,3 C 95 % 1013,5 hPa 0,7 l/m 2,3 km/h (1 Bft) SO 135 4,6 C 5,7 C 6,4 km/h (2 Bft)
16.10.2013 00:35 5,2 C 95 % 1013,5 hPa 0,0 l/m 1,3 km/h (1 Bft) SO 135 4,5 C 5,5 C 0,0 km/h (0 Bft)
16.10.2013 00:40 5,1 C 95 % 1013,5 hPa 0,7 l/m 1,0 km/h (0 Bft) O-SO 112 4,4 C 5,4 C 0,0 km/h (0 Bft)
16.10.2013 00:45 5,0 C 95 % 1013,5 hPa 0,7 l/m 1,4 km/h (1 Bft) O 90 4,3 C 5,3 C 2,6 km/h (1 Bft)
16.10.2013 00:50 4,8 C 96 % 1013,2 hPa 0,0 l/m 2,1 km/h (1 Bft) S-SO 157 4,2 C 5,2 C 5,3 km/h (1 Bft)
16.10.2013 00:55 4,7 C 96 % 1013,2 hPa 0,0 l/m 2,1 km/h (1 Bft) O 90 4,1 C 5,0 C 0,0 km/h (0 Bft)
16.10.2013 01:00 4,7 C 96 % 1013,2 hPa 0,7 l/m 1,3 km/h (1 Bft) S-SO 157 4,1 C 4,9 C 2,3 km/h (1 Bft)
16.10.2013 01:05 4,6 C 96 % 1013,2 hPa 0,0 l/m 0,8 km/h (0 Bft) SO 135 4,0 C 4,9 C 2,4 km/h (1 Bft)
16.10.2013 01:10 4,5 C 96 % 1013,5 hPa 0,7 l/m 0,6 km/h (0 Bft) O-SO 112 3,9 C 4,8 C 0,0 km/h (0 Bft)
16.10.2013 01:15 4,5 C 96 % 1013,5 hPa 0,0 l/m 0,6 km/h (0 Bft) O-SO 112 3,9 C 4,7 C 0,0 km/h (0 Bft)
16.10.2013 01:20 4,4 C 96 % 1013,5 hPa 0,7 l/m 1,1 km/h (1 Bft) S-SO 157 3,8 C 4,7 C 1,8 km/h (1 Bft)
16.10.2013 01:25 4,4 C 96 % 1013,5 hPa 0,7 l/m 2,6 km/h (1 Bft) S 180 3,8 C 4,6 C 6,4 km/h (2 Bft)
16.10.2013 01:30 4,1 C 96 % 1013,9 hPa 0,0 l/m 4,8 km/h (1 Bft) S 180 3,5 C 3,4 C 12,9 km/h (3 Bft)
16.10.2013 01:35 3,9 C 96 % 1013,9 hPa 0,0 l/m 4,3 km/h (1 Bft) S 180 3,3 C 3,4 C 4,0 km/h (1 Bft)
16.10.2013 01:40 3,8 C 96 % 1013,9 hPa 0,7 l/m 2,4 km/h (1 Bft) O-SO 112 3,2 C 4,0 C 0,0 km/h (0 Bft)
16.10.2013 01:45 3,8 C 96 % 1013,9 hPa 0,0 l/m 2,1 km/h (1 Bft) O-SO 112 3,2 C 4,0 C 3,1 km/h (1 Bft)
16.10.2013 01:50 3,7 C 96 % 1013,5 hPa 0,7 l/m 1,6 km/h (1 Bft) S-SW 202 3,1 C 3,8 C 2,4 km/h (1 Bft)
16.10.2013 01:55 3,7 C 96 % 1013,5 hPa 0,0 l/m 1,6 km/h (1 Bft) S 180 3,1 C 3,7 C 2,3 km/h (1 Bft)
16.10.2013 02:00 3,6 C 96 % 1013,5 hPa 0,7 l/m 1,4 km/h (1 Bft) SO 135 3,0 C 3,6 C 0,0 km/h (0 Bft)
16.10.2013 02:05 3,4 C 96 % 1013,5 hPa 0,0 l/m 0,8 km/h (0 Bft) O-SO 112 2,8 C 3,6 C 0,0 km/h (0 Bft)
16.10.2013 02:10 3,1 C 96 % 1013,6 hPa 0,7 l/m 0,3 km/h (0 Bft) O-NO 67 2,5 C 3,3 C 0,0 km/h (0 Bft)
16.10.2013 02:15 3,1 C 96 % 1013,6 hPa 0,7 l/m 0,6 km/h (0 Bft) S 180 2,5 C 3,2 C 0,0 km/h (0 Bft)
16.10.2013 02:20 3,1 C 96 % 1013,6 hPa 0,7 l/m 1,0 km/h (0 Bft) S-SW 202 2,5 C 3,2 C 1,9 km/h (1 Bft)
16.10.2013 02:25 3,1 C 96 % 1013,6 hPa 0,0 l/m 1,3 km/h (1 Bft) SO 135 2,5 C 3,1 C 0,0 km/h (0 Bft)
16.10.2013 02:30 3,1 C 96 % 1013,6 hPa 0,0 l/m 1,1 km/h (1 Bft) SW 225 2,5 C 3,0 C 0,0 km/h (0 Bft)
16.10.2013 02:35 3,1 C 96 % 1013,6 hPa 1,4 l/m 0,5 km/h (0 Bft) W-SW 247 2,5 C 3,0 C 2,6 km/h (1 Bft)
16.10.2013 02:40 3,0 C 96 % 1013,6 hPa 0,0 l/m 0,8 km/h (0 Bft) SO 135 2,4 C 3,0 C 3,2 km/h (1 Bft)
16.10.2013 02:45 2,9 C 97 % 1013,6 hPa 0,7 l/m 1,6 km/h (1 Bft) S-SW 202 2,5 C 2,9 C 4,3 km/h (1 Bft)
16.10.2013 02:50 2,9 C 97 % 1013,3 hPa 0,7 l/m 2,3 km/h (1 Bft) S 180 2,5 C 2,9 C 4,3 km/h (1 Bft)
16.10.2013 02:55 2,8 C 97 % 1013,3 hPa 0,0 l/m 1,8 km/h (1 Bft) O-SO 112 2,4 C 2,9 C 0,0 km/h (0 Bft)
16.10.2013 03:00 2,8 C 97 % 1013,3 hPa 0,7 l/m 2,1 km/h (1 Bft) S-SO 157 2,4 C 2,9 C 4,3 km/h (1 Bft)
16.10.2013 03:05 2,8 C 97 % 1013,3 hPa 0,0 l/m 3,9 km/h (1 Bft) S 180 2,4 C 2,2 C 6,1 km/h (2 Bft)
16.10.2013 03:10 2,8 C 97 % 1012,1 hPa 0,0 l/m 5,6 km/h (1 Bft) NO 45 2,4 C 1,4 C 9,5 km/h (2 Bft)
16.10.2013 03:15 2,9 C 97 % 1012,1 hPa 0,0 l/m 6,4 km/h (2 Bft) O-SO 112 2,5 C 1,1 C 7,4 km/h (2 Bft)
16.10.2013 03:20 2,9 C 97 % 1012,1 hPa 0,0 l/m 4,2 km/h (1 Bft) O-NO 67 2,5 C 2,1 C 6,4 km/h (2 Bft)
16.10.2013 03:25 2,9 C 97 % 1012,1 hPa 0,0 l/m 5,5 km/h (1 Bft) S-SO 157 2,5 C 1,5 C 6,4 km/h (2 Bft)
16.10.2013 03:30 2,8 C 97 % 1012,1 hPa 0,0 l/m 5,1 km/h (1 Bft) SO 135 2,4 C 1,6 C 16,9 km/h (3 Bft)
16.10.2013 03:35 2,8 C 97 % 1012,1 hPa 0,0 l/m 3,2 km/h (1 Bft) O-SO 112 2,4 C 2,6 C 5,3 km/h (1 Bft)
16.10.2013 03:40 2,7 C 97 % 1012,1 hPa 0,0 l/m 1,4 km/h (1 Bft) NO 45 2,3 C 2,8 C 0,0 km/h (0 Bft)
16.10.2013 03:45 2,6 C 97 % 1012,1 hPa 0,0 l/m 1,0 km/h (0 Bft) S 180 2,2 C 2,7 C 0,0 km/h (0 Bft)
16.10.2013 03:50 2,4 C 97 % 1012,4 hPa 0,0 l/m 0,8 km/h (0 Bft) S 180 2,0 C 2,4 C 2,9 km/h (1 Bft)
16.10.2013 03:55 2,7 C 97 % 1012,4 hPa 0,0 l/m 1,3 km/h (1 Bft) NO 45 2,3 C 2,4 C 0,0 km/h (0 Bft)
16.10.2013 04:00 2,9 C 97 % 1012,4 hPa 0,0 l/m 2,3 km/h (1 Bft) O 90 2,5 C 2,5 C 0,0 km/h (0 Bft)
16.10.2013 04:05 2,9 C 97 % 1012,4 hPa 0,0 l/m 1,6 km/h (1 Bft) NO 45 2,5 C 2,5 C 0,0 km/h (0 Bft)
16.10.2013 04:10 2,8 C 97 % 1012,3 hPa 0,0 l/m 1,1 km/h (1 Bft) NO 45 2,4 C 2,4 C 4,0 km/h (1 Bft)
16.10.2013 04:13 2,9 C 97 % 1012,3 hPa 0,0 l/m 1,3 km/h (1 Bft) O-SO 112 2,5 C 2,4 C 2,1 km/h (1 Bft)
16.10.2013 04:15 2,9 C 97 % 1012,3 hPa 0,0 l/m 1,3 km/h (1 Bft) O-SO 112 2,5 C 2,4 C 2,1 km/h (1 Bft)
16.10.2013 04:20 2,7 C 97 % 1012,3 hPa 0,0 l/m 0,8 km/h (0 Bft) NO 45 2,3 C 2,3 C 0,0 km/h (0 Bft)
16.10.2013 04:25 2,7 C 97 % 1012,3 hPa 0,0 l/m 0,3 km/h (0 Bft) O-NO 67 2,3 C 2,3 C 0,0 km/h (0 Bft)
16.10.2013 04:30 3,0 C 96 % 1012,1 hPa 0,0 l/m 0,8 km/h (0 Bft) W-SW 247 2,4 C 2,6 C 1,9 km/h (1 Bft)
16.10.2013 04:35 2,8 C 97 % 1012,1 hPa 0,0 l/m 0,8 km/h (0 Bft) S 180 2,4 C 2,8 C 0,0 km/h (0 Bft)
16.10.2013 04:40 3,3 C 96 % 1012,1 hPa 0,0 l/m 1,3 km/h (1 Bft) O 90 2,7 C 2,9 C 1,9 km/h (1 Bft)
16.10.2013 04:45 3,2 C 96 % 1012,1 hPa 0,0 l/m 1,1 km/h (1 Bft) S-SO 157 2,6 C 3,1 C 2,1 km/h (1 Bft)
16.10.2013 04:50 3,4 C 96 % 1012,4 hPa 0,0 l/m 1,3 km/h (1 Bft) O-SO 112 2,8 C 3,4 C 7,4 km/h (2 Bft)
16.10.2013 04:55 3,7 C 96 % 1012,4 hPa 0,0 l/m 2,1 km/h (1 Bft) SO 135 3,1 C 3,6 C 4,0 km/h (1 Bft)
16.10.2013 05:00 3,9 C 97 % 1012,4 hPa 0,0 l/m 5,5 km/h (1 Bft) S 180 3,5 C 2,8 C 6,4 km/h (2 Bft)
16.10.2013 05:05 3,8 C 97 % 1012,4 hPa 0,0 l/m 6,4 km/h (2 Bft) S-SO 157 3,4 C 2,5 C 5,0 km/h (1 Bft)
16.10.2013 05:10 3,7 C 97 % 1012,8 hPa 0,0 l/m 6,4 km/h (2 Bft) S-SO 157 3,3 C 2,5 C 13,4 km/h (3 Bft)
16.10.2013 05:15 3,9 C 97 % 1012,8 hPa 0,0 l/m 6,4 km/h (2 Bft) S 180 3,5 C 2,7 C 9,2 km/h (2 Bft)
16.10.2013 05:20 4,0 C 96 % 1012,8 hPa 0,0 l/m 7,1 km/h (2 Bft) SO 135 3,4 C 2,0 C 8,2 km/h (2 Bft)
16.10.2013 05:25 4,1 C 96 % 1012,8 hPa 0,0 l/m 7,7 km/h (2 Bft) S-SO 157 3,5 C 1,5 C 14,8 km/h (3 Bft)
16.10.2013 05:30 4,2 C 96 % 1013,1 hPa 0,0 l/m 7,7 km/h (2 Bft) SO 135 3,6 C 1,7 C 11,6 km/h (2 Bft)
16.10.2013 05:35 4,2 C 96 % 1013,1 hPa 0,0 l/m 7,1 km/h (2 Bft) S 180 3,6 C 2,5 C 8,4 km/h (2 Bft)
16.10.2013 05:40 4,1 C 96 % 1013,1 hPa 0,0 l/m 6,8 km/h (2 Bft) S 180 3,5 C 2,9 C 7,1 km/h (2 Bft)
16.10.2013 05:45 4,1 C 96 % 1013,1 hPa 0,0 l/m 6,4 km/h (2 Bft) S-SO 157 3,5 C 3,3 C 7,2 km/h (2 Bft)
16.10.2013 05:50 3,9 C 97 % 1013,1 hPa 0,0 l/m 6,0 km/h (2 Bft) S-SO 157 3,5 C 3,4 C 7,4 km/h (2 Bft)
16.10.2013 05:55 3,9 C 97 % 1013,1 hPa 0,0 l/m 6,4 km/h (2 Bft) S-SO 157 3,5 C 3,0 C 8,2 km/h (2 Bft)
16.10.2013 06:00 3,9 C 97 % 1013,1 hPa 0,0 l/m 6,4 km/h (2 Bft) S 180 3,5 C 2,8 C 10,1 km/h (2 Bft)
16.10.2013 06:05 3,9 C 97 % 1013,1 hPa 0,0 l/m 6,1 km/h (2 Bft) O-SO 112 3,5 C 2,9 C 14,8 km/h (3 Bft)
16.10.2013 06:10 3,9 C 97 % 1013,3 hPa 0,0 l/m 5,5 km/h (1 Bft) SW 225 3,5 C 3,2 C 9,2 km/h (2 Bft)
16.10.2013 06:15 3,7 C 97 % 1013,3 hPa 0,0 l/m 5,1 km/h (1 Bft) S-SO 157 3,3 C 3,2 C 8,4 km/h (2 Bft)
16.10.2013 06:20 3,8 C 97 % 1013,3 hPa 0,0 l/m 5,0 km/h (1 Bft) O-SO 112 3,4 C 3,3 C 3,9 km/h (1 Bft)
16.10.2013 06:25 3,8 C 97 % 1013,3 hPa 0,0 l/m 4,7 km/h (1 Bft) S-SO 157 3,4 C 3,3 C 9,8 km/h (2 Bft)
16.10.2013 06:30 3,9 C 97 % 1013,5 hPa 0,0 l/m 4,3 km/h (1 Bft) SO 135 3,5 C 3,6 C 6,0 km/h (2 Bft)
16.10.2013 06:35 3,9 C 97 % 1013,5 hPa 0,0 l/m 5,8 km/h (2 Bft) S-SW 202 3,5 C 2,9 C 11,6 km/h (2 Bft)
16.10.2013 06:40 3,8 C 97 % 1013,5 hPa 0,0 l/m 6,4 km/h (2 Bft) S 180 3,4 C 2,8 C 10,9 km/h (2 Bft)
16.10.2013 06:45 3,7 C 97 % 1013,5 hPa 0,0 l/m 6,1 km/h (2 Bft) S 180 3,3 C 3,1 C 3,1 km/h (1 Bft)
16.10.2013 06:50 3,9 C 97 % 1013,4 hPa 0,0 l/m 4,3 km/h (1 Bft) S-SW 202 3,5 C 3,7 C 7,1 km/h (2 Bft)
16.10.2013 06:55 4,1 C 96 % 1013,4 hPa 0,0 l/m 4,2 km/h (1 Bft) SO 135 3,5 C 3,8 C 4,5 km/h (1 Bft)
16.10.2013 07:00 4,1 C 96 % 1013,4 hPa 0,0 l/m 4,0 km/h (1 Bft) SO 135 3,5 C 4,1 C 4,7 km/h (1 Bft)
16.10.2013 07:05 4,1 C 96 % 1013,4 hPa 0,0 l/m 3,7 km/h (1 Bft) O-SO 112 3,5 C 4,2 C 3,5 km/h (1 Bft)
16.10.2013 07:10 4,0 C 96 % 1013,5 hPa 0,0 l/m 3,7 km/h (1 Bft) S 180 3,4 C 4,2 C 6,0 km/h (2 Bft)
16.10.2013 07:15 4,0 C 96 % 1013,5 hPa 0,0 l/m 4,3 km/h (1 Bft) S 180 3,4 C 3,9 C 9,0 km/h (2 Bft)
16.10.2013 07:20 4,1 C 96 % 1013,5 hPa 0,0 l/m 5,0 km/h (1 Bft) O-NO 67 3,5 C 3,8 C 4,3 km/h (1 Bft)
16.10.2013 07:25 4,2 C 97 % 1013,5 hPa 0,0 l/m 4,7 km/h (1 Bft) O-SO 112 3,8 C 4,1 C 4,5 km/h (1 Bft)
16.10.2013 07:30 4,4 C 97 % 1013,8 hPa 0,0 l/m 3,9 km/h (1 Bft) S-SW 202 4,0 C 4,6 C 4,5 km/h (1 Bft)
16.10.2013 07:35 4,5 C 97 % 1013,8 hPa 0,0 l/m 4,3 km/h (1 Bft) S 180 4,1 C 4,4 C 7,9 km/h (2 Bft)
16.10.2013 07:40 4,5 C 97 % 1013,8 hPa 0,0 l/m 4,5 km/h (1 Bft) SO 135 4,1 C 4,5 C 6,4 km/h (2 Bft)
16.10.2013 07:45 4,5 C 97 % 1013,8 hPa 0,0 l/m 3,9 km/h (1 Bft) S 180 4,1 C 4,7 C 7,7 km/h (2 Bft)
16.10.2013 07:50 4,3 C 97 % 1014,3 hPa 0,0 l/m 3,7 km/h (1 Bft) O 90 3,9 C 4,8 C 2,9 km/h (1 Bft)
16.10.2013 07:55 4,3 C 97 % 1014,3 hPa 0,0 l/m 3,9 km/h (1 Bft) S-SO 157 3,9 C 4,4 C 7,1 km/h (2 Bft)
16.10.2013 08:00 4,5 C 97 % 1014,3 hPa 0,0 l/m 4,2 km/h (1 Bft) S-SO 157 4,1 C 4,6 C 5,0 km/h (1 Bft)
16.10.2013 08:05 4,7 C 97 % 1014,3 hPa 0,0 l/m 4,7 km/h (1 Bft) S-SO 157 4,3 C 4,4 C 5,8 km/h (2 Bft)
16.10.2013 08:10 4,9 C 97 % 1014,6 hPa 0,0 l/m 5,1 km/h (1 Bft) O-SO 112 4,5 C 4,3 C 9,3 km/h (2 Bft)
16.10.2013 08:15 5,0 C 96 % 1014,6 hPa 0,0 l/m 5,8 km/h (2 Bft) S-SO 157 4,4 C 4,3 C 11,3 km/h (2 Bft)
16.10.2013 08:20 5,0 C 96 % 1014,6 hPa 0,0 l/m 5,5 km/h (1 Bft) S 180 4,4 C 4,6 C 5,3 km/h (1 Bft)
16.10.2013 08:25 5,0 C 96 % 1014,6 hPa 0,0 l/m 4,7 km/h (1 Bft) S 180 4,4 C 4,9 C 3,9 km/h (1 Bft)
16.10.2013 08:30 5,0 C 96 % 1014,9 hPa 0,0 l/m 3,1 km/h (1 Bft) SO 135 4,4 C 5,6 C 2,1 km/h (1 Bft)
16.10.2013 08:35 5,0 C 96 % 1014,9 hPa 0,0 l/m 2,7 km/h (1 Bft) SO 135 4,4 C 5,6 C 2,4 km/h (1 Bft)
16.10.2013 08:40 5,2 C 96 % 1014,9 hPa 0,0 l/m 3,2 km/h (1 Bft) O-SO 112 4,6 C 5,7 C 7,1 km/h (2 Bft)
16.10.2013 08:45 5,3 C 96 % 1014,9 hPa 0,0 l/m 4,2 km/h (1 Bft) S-SW 202 4,7 C 5,3 C 8,0 km/h (2 Bft)
16.10.2013 08:50 5,4 C 96 % 1015,1 hPa 0,0 l/m 5,0 km/h (1 Bft) SO 135 4,8 C 5,1 C 9,5 km/h (2 Bft)
16.10.2013 08:55 5,5 C 96 % 1015,1 hPa 0,0 l/m 5,6 km/h (1 Bft) S 180 4,9 C 5,0 C 6,0 km/h (2 Bft)
16.10.2013 09:00 5,5 C 96 % 1015,1 hPa 0,0 l/m 6,6 km/h (2 Bft) S 180 4,9 C 4,6 C 8,9 km/h (2 Bft)
16.10.2013 09:05 5,6 C 96 % 1015,1 hPa 0,0 l/m 6,3 km/h (2 Bft) W-SW 247 5,0 C 5,0 C 5,6 km/h (1 Bft)
16.10.2013 09:10 5,9 C 96 % 1015,2 hPa 0,0 l/m 6,0 km/h (2 Bft) S 180 5,3 C 5,3 C 6,3 km/h (2 Bft)
16.10.2013 09:15 6,0 C 96 % 1015,2 hPa 0,0 l/m 6,3 km/h (2 Bft) SO 135 5,4 C 5,3 C 6,3 km/h (2 Bft)
16.10.2013 09:20 6,1 C 96 % 1015,2 hPa 0,0 l/m 6,6 km/h (2 Bft) S-SW 202 5,5 C 5,3 C 7,6 km/h (2 Bft)
16.10.2013 09:25 6,2 C 96 % 1015,2 hPa 0,0 l/m 7,1 km/h (2 Bft) S-SO 157 5,6 C 4,8 C 10,5 km/h (2 Bft)
16.10.2013 09:30 6,4 C 96 % 1015,5 hPa 0,0 l/m 7,2 km/h (2 Bft) SO 135 5,8 C 5,0 C 4,8 km/h (1 Bft)
16.10.2013 09:35 6,5 C 96 % 1015,5 hPa 0,0 l/m 6,9 km/h (2 Bft) S-SO 157 5,9 C 5,6 C 9,0 km/h (2 Bft)
16.10.2013 09:40 6,8 C 95 % 1015,5 hPa 0,0 l/m 7,6 km/h (2 Bft) S-SO 157 6,1 C 5,0 C 9,5 km/h (2 Bft)
16.10.2013 09:45 6,7 C 95 % 1015,5 hPa 0,0 l/m 8,2 km/h (2 Bft) S-SO 157 6,0 C 4,8 C 10,5 km/h (2 Bft)
16.10.2013 09:50 6,8 C 95 % 1015,6 hPa 0,0 l/m 8,2 km/h (2 Bft) W-SW 247 6,1 C 4,8 C 7,9 km/h (2 Bft)
16.10.2013 09:55 6,9 C 95 % 1015,6 hPa 0,0 l/m 7,7 km/h (2 Bft) SO 135 6,2 C 5,1 C 8,0 km/h (2 Bft)
16.10.2013 10:00 7,0 C 94 % 1015,6 hPa 0,0 l/m 7,1 km/h (2 Bft) S 180 6,1 C 5,8 C 9,8 km/h (2 Bft)
16.10.2013 10:05 7,1 C 94 % 1015,6 hPa 0,0 l/m 6,8 km/h (2 Bft) S 180 6,2 C 6,3 C 6,9 km/h (2 Bft)
16.10.2013 10:10 7,3 C 94 % 1015,8 hPa 0,0 l/m 7,6 km/h (2 Bft) S-SO 157 6,4 C 5,6 C 8,5 km/h (2 Bft)
16.10.2013 10:13 7,4 C 93 % 1015,8 hPa 0,0 l/m 8,4 km/h (2 Bft) S-SO 157 6,3 C 5,2 C 12,1 km/h (2 Bft)
16.10.2013 10:15 7,4 C 93 % 1015,8 hPa 0,0 l/m 8,4 km/h (2 Bft) S-SO 157 6,3 C 5,2 C 12,1 km/h (2 Bft)
16.10.2013 10:20 7,7 C 93 % 1015,8 hPa 0,0 l/m 7,7 km/h (2 Bft) S 180 6,6 C 5,9 C 18,3 km/h (3 Bft)
16.10.2013 10:25 7,7 C 92 % 1015,8 hPa 0,0 l/m 6,0 km/h (2 Bft) O 90 6,5 C 7,6 C 4,2 km/h (1 Bft)
16.10.2013 10:30 7,6 C 92 % 1015,9 hPa 0,0 l/m 5,6 km/h (1 Bft) S 180 6,4 C 7,8 C 7,7 km/h (2 Bft)
16.10.2013 10:35 7,7 C 90 % 1015,9 hPa 0,0 l/m 7,7 km/h (2 Bft) W-SW 247 6,2 C 6,2 C 14,6 km/h (3 Bft)
16.10.2013 10:40 7,9 C 89 % 1015,9 hPa 0,0 l/m 8,9 km/h (2 Bft) S-SW 202 6,2 C 5,1 C 7,9 km/h (2 Bft)
16.10.2013 10:45 7,9 C 88 % 1015,9 hPa 0,0 l/m 9,0 km/h (2 Bft) S 180 6,0 C 5,3 C 8,0 km/h (2 Bft)
16.10.2013 10:50 8,2 C 87 % 1016,5 hPa 0,0 l/m 7,6 km/h (2 Bft) S 180 6,2 C 6,7 C 11,3 km/h (2 Bft)
16.10.2013 10:55 8,2 C 86 % 1016,5 hPa 0,0 l/m 7,9 km/h (2 Bft) S 180 6,0 C 6,6 C 13,0 km/h (3 Bft)
16.10.2013 11:00 8,2 C 85 % 1016,5 hPa 0,0 l/m 9,7 km/h (2 Bft) S 180 5,8 C 5,0 C 21,4 km/h (4 Bft)
16.10.2013 11:05 8,2 C 84 % 1016,5 hPa 0,0 l/m 9,7 km/h (2 Bft) S-SO 157 5,7 C 5,0 C 12,1 km/h (2 Bft)
16.10.2013 11:10 8,4 C 83 % 1016,6 hPa 0,0 l/m 8,0 km/h (2 Bft) W-SW 247 5,7 C 6,6 C 12,9 km/h (3 Bft)
16.10.2013 11:15 8,6 C 84 % 1016,6 hPa 0,0 l/m 8,0 km/h (2 Bft) W-SW 247 6,1 C 6,6 C 12,9 km/h (3 Bft)
16.10.2013 11:20 8,7 C 82 % 1016,6 hPa 0,0 l/m 8,2 km/h (2 Bft) O-SO 112 5,8 C 6,7 C 10,3 km/h (2 Bft)
16.10.2013 11:25 9,9 C 80 % 1016,6 hPa 0,0 l/m 8,0 km/h (2 Bft) S 180 6,6 C 7,8 C 8,9 km/h (2 Bft)
16.10.2013 11:30 9,6 C 78 % 1017,1 hPa 0,0 l/m 8,5 km/h (2 Bft) S-SO 157 6,0 C 8,4 C 10,6 km/h (2 Bft)
16.10.2013 11:35 9,3 C 76 % 1017,1 hPa 0,0 l/m 10,6 km/h (2 Bft) S 180 5,3 C 6,4 C 17,1 km/h (3 Bft)
16.10.2013 11:40 9,6 C 78 % 1017,1 hPa 0,0 l/m 10,8 km/h (2 Bft) S 180 6,0 C 5,8 C 7,9 km/h (2 Bft)
16.10.2013 11:45 9,7 C 76 % 1017,1 hPa 0,0 l/m 9,7 km/h (2 Bft) S 180 5,7 C 7,6 C 9,8 km/h (2 Bft)
16.10.2013 11:50 9,1 C 76 % 1017,5 hPa 0,0 l/m 9,7 km/h (2 Bft) S 180 5,1 C 7,6 C 9,8 km/h (2 Bft)
16.10.2013 11:55 9,2 C 76 % 1017,5 hPa 0,0 l/m 10,5 km/h (2 Bft) S-SW 202 5,2 C 6,2 C 10,5 km/h (2 Bft)
16.10.2013 12:00 9,0 C 76 % 1017,5 hPa 0,0 l/m 10,6 km/h (2 Bft) W-SW 247 5,0 C 5,9 C 15,0 km/h (3 Bft)
16.10.2013 12:05 8,7 C 76 % 1017,5 hPa 0,0 l/m 9,3 km/h (2 Bft) SO 135 4,7 C 6,7 C 11,9 km/h (2 Bft)
16.10.2013 12:10 9,6 C 75 % 1017,6 hPa 0,0 l/m 10,9 km/h (2 Bft) S-SO 157 5,4 C 4,8 C 9,8 km/h (2 Bft)
16.10.2013 12:15 8,9 C 75 % 1017,6 hPa 0,0 l/m 10,9 km/h (2 Bft) S 180 4,7 C 5,7 C 14,0 km/h (3 Bft)
16.10.2013 12:20 8,9 C 76 % 1017,6 hPa 0,0 l/m 10,8 km/h (2 Bft) S 180 4,9 C 5,5 C 13,4 km/h (3 Bft)
16.10.2013 12:25 9,2 C 76 % 1017,6 hPa 0,0 l/m 10,8 km/h (2 Bft) S 180 5,2 C 6,1 C 11,9 km/h (2 Bft)
16.10.2013 12:30 8,8 C 76 % 1018,1 hPa 0,0 l/m 10,8 km/h (2 Bft) S 180 4,8 C 6,1 C 11,9 km/h (2 Bft)
16.10.2013 12:35 8,5 C 77 % 1018,1 hPa 0,0 l/m 8,7 km/h (2 Bft) S 180 4,7 C 6,9 C 8,9 km/h (2 Bft)
16.10.2013 12:40 8,6 C 77 % 1018,1 hPa 0,0 l/m 8,7 km/h (2 Bft) S-SO 157 4,8 C 6,2 C 11,7 km/h (2 Bft)
16.10.2013 12:45 8,8 C 77 % 1018,1 hPa 0,0 l/m 9,0 km/h (2 Bft) SO 135 5,0 C 6,1 C 7,9 km/h (2 Bft)
16.10.2013 12:50 9,1 C 76 % 1017,9 hPa 0,0 l/m 8,7 km/h (2 Bft) S 180 5,1 C 6,9 C 10,8 km/h (2 Bft)
16.10.2013 12:55 9,4 C 75 % 1017,9 hPa 0,0 l/m 8,2 km/h (2 Bft) SW 225 5,2 C 7,6 C 10,0 km/h (2 Bft)
16.10.2013 13:00 9,8 C 75 % 1017,9 hPa 0,0 l/m 8,0 km/h (2 Bft) S 180 5,6 C 8,6 C 11,4 km/h (2 Bft)
16.10.2013 13:05 9,8 C 75 % 1017,9 hPa 0,0 l/m 8,2 km/h (2 Bft) S-SW 202 5,6 C 9,1 C 13,0 km/h (3 Bft)
16.10.2013 13:10 9,1 C 72 % 1018,1 hPa 0,0 l/m 9,0 km/h (2 Bft) S 180 4,3 C 9,0 C 18,3 km/h (3 Bft)
16.10.2013 13:15 9,2 C 72 % 1018,1 hPa 0,0 l/m 9,0 km/h (2 Bft) S 180 4,4 C 9,0 C 18,3 km/h (3 Bft)
16.10.2013 13:20 9,2 C 72 % 1018,1 hPa 0,0 l/m 9,0 km/h (2 Bft) S 180 4,4 C 9,0 C 18,3 km/h (3 Bft)
16.10.2013 13:25 9,7 C 72 % 1018,1 hPa 0,0 l/m 12,6 km/h (3 Bft) W-SW 247 4,9 C 4,8 C 10,0 km/h (2 Bft)
16.10.2013 13:30 9,7 C 69 % 1018,2 hPa 0,0 l/m 10,6 km/h (2 Bft) S 180 4,3 C 7,7 C 13,2 km/h (3 Bft)
16.10.2013 13:35 9,8 C 70 % 1018,2 hPa 0,0 l/m 9,2 km/h (2 Bft) SO 135 4,6 C 8,9 C 14,8 km/h (3 Bft)
16.10.2013 13:40 10,0 C 68 % 1018,2 hPa 0,0 l/m 9,2 km/h (2 Bft) S 180 4,4 C 8,7 C 13,2 km/h (3 Bft)
16.10.2013 13:45 9,9 C 68 % 1018,2 hPa 0,0 l/m 9,5 km/h (2 Bft) S 180 4,3 C 8,3 C 11,1 km/h (2 Bft)
16.10.2013 13:50 9,9 C 68 % 1018,1 hPa 0,0 l/m 9,5 km/h (2 Bft) S 180 4,3 C 8,3 C 11,1 km/h (2 Bft)
16.10.2013 13:55 9,9 C 69 % 1018,1 hPa 0,0 l/m 8,2 km/h (2 Bft) S 180 4,5 C 8,5 C 7,1 km/h (2 Bft)
16.10.2013 14:00 9,6 C 68 % 1018,1 hPa 0,0 l/m 8,4 km/h (2 Bft) S-SO 157 4,0 C 8,3 C 14,2 km/h (3 Bft)
16.10.2013 14:05 9,7 C 67 % 1018,1 hPa 0,0 l/m 10,0 km/h (2 Bft) S-SO 157 3,9 C 7,3 C 13,5 km/h (3 Bft)
16.10.2013 14:10 9,7 C 66 % 1017,9 hPa 0,0 l/m 10,3 km/h (2 Bft) S-SO 157 3,7 C 8,6 C 10,0 km/h (2 Bft)
16.10.2013 14:15 9,3 C 67 % 1017,9 hPa 0,0 l/m 10,6 km/h (2 Bft) O-SO 112 3,5 C 8,9 C 14,3 km/h (3 Bft)
16.10.2013 14:20 9,6 C 68 % 1017,9 hPa 0,0 l/m 9,8 km/h (2 Bft) S 180 4,0 C 9,4 C 8,4 km/h (2 Bft)
16.10.2013 14:25 10,0 C 66 % 1017,9 hPa 0,0 l/m 9,8 km/h (2 Bft) S 180 3,9 C 9,4 C 8,4 km/h (2 Bft)
16.10.2013 14:30 9,7 C 66 % 1018,1 hPa 0,0 l/m 9,8 km/h (2 Bft) S 180 3,7 C 9,4 C 8,4 km/h (2 Bft)
16.10.2013 14:35 9,7 C 67 % 1018,1 hPa 0,0 l/m 0,0 km/h (0 Bft) S 180 3,9 C 11,5 C 0,0 km/h (0 Bft)
16.10.2013 14:40 9,6 C 67 % 1018,1 hPa 0,0 l/m 0,0 km/h (0 Bft) S 180 3,8 C 11,5 C 0,0 km/h (0 Bft)
16.10.2013 14:45 9,5 C 68 % 1018,1 hPa 0,0 l/m 0,0 km/h (0 Bft) S 180 3,9 C 11,5 C 0,0 km/h (0 Bft)
16.10.2013 14:50 10,0 C 68 % 1017,5 hPa 0,0 l/m 0,0 km/h (0 Bft) S 180 4,4 C 11,5 C 0,0 km/h (0 Bft)
16.10.2013 14:55 10,2 C 67 % 1017,5 hPa 0,0 l/m 0,0 km/h (0 Bft) S 180 4,4 C 11,5 C 0,0 km/h (0 Bft)
16.10.2013 15:00 10,2 C 64 % 1017,5 hPa 0,0 l/m 0,0 km/h (0 Bft) S 180 3,7 C 11,5 C 0,0 km/h (0 Bft)
16.10.2013 15:05 10,1 C 63 % 1017,5 hPa 0,0 l/m 0,0 km/h (0 Bft) S 180 3,4 C 11,5 C 0,0 km/h (0 Bft)
16.10.2013 15:10 10,6 C 62 % 1017,7 hPa 0,0 l/m 0,0 km/h (0 Bft) S 180 3,6 C 11,5 C 0,0 km/h (0 Bft)
16.10.2013 15:15 10,3 C 63 % 1017,7 hPa 0,0 l/m 0,0 km/h (0 Bft) S 180 3,6 C 11,5 C 0,0 km/h (0 Bft)
16.10.2013 15:20 10,5 C 64 % 1017,7 hPa 0,0 l/m 0,0 km/h (0 Bft) S 180 4,0 C 11,5 C 0,0 km/h (0 Bft)
16.10.2013 15:25 10,6 C 64 % 1017,7 hPa 0,0 l/m 0,0 km/h (0 Bft) S 180 4,1 C 11,5 C 0,0 km/h (0 Bft)
16.10.2013 15:30 10,3 C 64 % 1017,6 hPa 0,0 l/m 0,0 km/h (0 Bft) S 180 3,8 C 11,5 C 0,0 km/h (0 Bft)
16.10.2013 15:35 10,3 C 64 % 1017,6 hPa 0,0 l/m 0,0 km/h (0 Bft) S 180 3,8 C 11,5 C 0,0 km/h (0 Bft)
16.10.2013 15:40 10,5 C 64 % 1017,6 hPa 0,0 l/m 0,0 km/h (0 Bft) S 180 4,0 C 11,5 C 0,0 km/h (0 Bft)
16.10.2013 15:45 10,5 C 64 % 1017,6 hPa 0,0 l/m 0,0 km/h (0 Bft) S 180 4,0 C 11,5 C 0,0 km/h (0 Bft)
16.10.2013 15:50 10,2 C 65 % 1017,9 hPa 0,0 l/m 0,0 km/h (0 Bft) S 180 3,9 C 11,5 C 0,0 km/h (0 Bft)
16.10.2013 15:55 9,8 C 66 % 1017,9 hPa 0,0 l/m 0,0 km/h (0 Bft) S 180 3,8 C 11,5 C 0,0 km/h (0 Bft)
16.10.2013 16:00 9,5 C 67 % 1017,9 hPa 0,0 l/m 0,0 km/h (0 Bft) S 180 3,7 C 11,5 C 0,0 km/h (0 Bft)
16.10.2013 16:05 9,3 C 68 % 1017,9 hPa 0,0 l/m 0,0 km/h (0 Bft) S 180 3,7 C 11,5 C 0,0 km/h (0 Bft)
16.10.2013 16:10 9,3 C 68 % 1017,4 hPa 0,0 l/m 0,0 km/h (0 Bft) S 180 3,7 C 11,5 C 0,0 km/h (0 Bft)
16.10.2013 16:13 9,2 C 68 % 1017,4 hPa 0,0 l/m 0,0 km/h (0 Bft) S 180 3,6 C 11,5 C 0,0 km/h (0 Bft)
16.10.2013 16:15 9,2 C 68 % 1017,4 hPa 0,0 l/m 0,0 km/h (0 Bft) S 180 3,6 C 11,5 C 0,0 km/h (0 Bft)
16.10.2013 16:20 9,2 C 69 % 1017,4 hPa 0,0 l/m 0,0 km/h (0 Bft) S 180 3,8 C 11,5 C 0,0 km/h (0 Bft)
16.10.2013 16:25 9,2 C 70 % 1017,4 hPa 0,0 l/m 0,0 km/h (0 Bft) S 180 4,0 C 11,5 C 0,0 km/h (0 Bft)
16.10.2013 16:30 9,5 C 70 % 1017,4 hPa 0,0 l/m 0,0 km/h (0 Bft) S 180 4,3 C 11,5 C 0,0 km/h (0 Bft)
16.10.2013 16:35 9,4 C 70 % 1017,4 hPa 0,0 l/m 0,0 km/h (0 Bft) S 180 4,2 C 11,5 C 0,0 km/h (0 Bft)
16.10.2013 16:40 9,3 C 69 % 1017,4 hPa 0,0 l/m 0,0 km/h (0 Bft) S 180 3,9 C 11,5 C 0,0 km/h (0 Bft)
16.10.2013 16:45 9,3 C 69 % 1017,4 hPa 0,0 l/m 0,0 km/h (0 Bft) S 180 3,9 C 11,5 C 0,0 km/h (0 Bft)
16.10.2013 16:50 9,2 C 69 % 1017,4 hPa 0,0 l/m 0,0 km/h (0 Bft) S 180 3,8 C 11,5 C 0,0 km/h (0 Bft)
16.10.2013 16:55 9,0 C 70 % 1017,4 hPa 0,0 l/m 0,0 km/h (0 Bft) S 180 3,8 C 11,5 C 0,0 km/h (0 Bft)
16.10.2013 17:00 8,8 C 71 % 1017,4 hPa 0,0 l/m 0,0 km/h (0 Bft) S 180 3,8 C 11,5 C 0,0 km/h (0 Bft)
16.10.2013 17:05 8,8 C 70 % 1017,4 hPa 0,0 l/m 0,0 km/h (0 Bft) S 180 3,6 C 11,5 C 0,0 km/h (0 Bft)
16.10.2013 17:10 8,6 C 71 % 1017,4 hPa 0,0 l/m 0,0 km/h (0 Bft) S 180 3,6 C 11,5 C 0,0 km/h (0 Bft)
16.10.2013 17:15 8,5 C 72 % 1017,4 hPa 0,0 l/m 0,0 km/h (0 Bft) S 180 3,7 C 11,5 C 0,0 km/h (0 Bft)
16.10.2013 17:20 8,7 C 72 % 1017,4 hPa 0,0 l/m 0,0 km/h (0 Bft) S 180 3,9 C 11,5 C 0,0 km/h (0 Bft)
16.10.2013 17:25 8,6 C 72 % 1017,4 hPa 0,0 l/m 0,0 km/h (0 Bft) S 180 3,8 C 11,5 C 0,0 km/h (0 Bft)
16.10.2013 17:30 8,7 C 72 % 1017,4 hPa 0,0 l/m 0,0 km/h (0 Bft) S 180 3,9 C 11,5 C 0,0 km/h (0 Bft)
16.10.2013 17:35 8,6 C 73 % 1017,4 hPa 0,0 l/m 0,0 km/h (0 Bft) S 180 4,0 C 11,5 C 0,0 km/h (0 Bft)
16.10.2013 17:40 8,2 C 73 % 1017,4 hPa 0,0 l/m 0,0 km/h (0 Bft) S 180 3,7 C 11,5 C 0,0 km/h (0 Bft)
16.10.2013 17:45 8,0 C 74 % 1017,4 hPa 0,0 l/m 0,0 km/h (0 Bft) S 180 3,7 C 11,5 C 0,0 km/h (0 Bft)
16.10.2013 17:50 8,0 C 74 % 1017,4 hPa 0,0 l/m 0,0 km/h (0 Bft) S 180 3,7 C 11,5 C 0,0 km/h (0 Bft)
16.10.2013 17:55 8,0 C 75 % 1017,4 hPa 0,0 l/m 0,0 km/h (0 Bft) S 180 3,8 C 11,5 C 0,0 km/h (0 Bft)
16.10.2013 18:00 7,9 C 75 % 1017,4 hPa 0,0 l/m 0,0 km/h (0 Bft) S 180 3,7 C 11,5 C 0,0 km/h (0 Bft)
16.10.2013 18:05 7,8 C 75 % 1017,4 hPa 0,0 l/m 0,0 km/h (0 Bft) S 180 3,7 C 11,5 C 0,0 km/h (0 Bft)
16.10.2013 18:10 7,7 C 75 % 1017,4 hPa 0,0 l/m 0,0 km/h (0 Bft) S 180 3,6 C 11,5 C 0,0 km/h (0 Bft)
16.10.2013 18:15 7,6 C 76 % 1017,4 hPa 0,0 l/m 0,0 km/h (0 Bft) S 180 3,6 C 11,5 C 0,0 km/h (0 Bft)
16.10.2013 18:20 7,4 C 76 % 1017,4 hPa 0,0 l/m 0,0 km/h (0 Bft) S 180 3,5 C 11,5 C 0,0 km/h (0 Bft)
16.10.2013 18:25 7,4 C 76 % 1017,4 hPa 0,0 l/m 0,0 km/h (0 Bft) S 180 3,5 C 11,5 C 0,0 km/h (0 Bft)
16.10.2013 18:30 7,2 C 77 % 1017,7 hPa 0,0 l/m 0,0 km/h (0 Bft) S 180 3,4 C 11,5 C 0,0 km/h (0 Bft)
16.10.2013 18:35 6,9 C 78 % 1017,7 hPa 0,0 l/m 0,0 km/h (0 Bft) S 180 3,3 C 11,5 C 0,0 km/h (0 Bft)
16.10.2013 18:40 6,8 C 79 % 1017,7 hPa 0,0 l/m 0,0 km/h (0 Bft) S 180 3,4 C 11,5 C 0,0 km/h (0 Bft)
16.10.2013 18:45 6,8 C 79 % 1017,7 hPa 0,0 l/m 0,0 km/h (0 Bft) S 180 3,4 C 11,5 C 0,0 km/h (0 Bft)
16.10.2013 18:50 6,7 C 80 % 1017,6 hPa 0,0 l/m 0,0 km/h (0 Bft) S 180 3,5 C 11,5 C 0,0 km/h (0 Bft)
16.10.2013 18:55 6,5 C 80 % 1017,6 hPa 0,0 l/m 0,0 km/h (0 Bft) S 180 3,3 C 11,5 C 0,0 km/h (0 Bft)
16.10.2013 19:00 6,5 C 80 % 1017,6 hPa 0,0 l/m 0,0 km/h (0 Bft) S 180 3,3 C 11,5 C 0,0 km/h (0 Bft)
16.10.2013 19:05 6,4 C 81 % 1017,6 hPa 0,0 l/m 0,0 km/h (0 Bft) S 180 3,4 C 11,5 C 0,0 km/h (0 Bft)
16.10.2013 19:10 6,3 C 81 % 1017,6 hPa 0,0 l/m 0,0 km/h (0 Bft) S 180 3,3 C 11,5 C 0,0 km/h (0 Bft)
16.10.2013 19:15 6,1 C 81 % 1017,6 hPa 0,0 l/m 0,0 km/h (0 Bft) S 180 3,1 C 11,5 C 0,0 km/h (0 Bft)
16.10.2013 19:20 6,0 C 82 % 1017,6 hPa 0,0 l/m 0,0 km/h (0 Bft) S 180 3,2 C 11,5 C 0,0 km/h (0 Bft)
16.10.2013 19:25 5,9 C 83 % 1017,6 hPa 0,0 l/m 0,0 km/h (0 Bft) S 180 3,2 C 11,5 C 0,0 km/h (0 Bft)
16.10.2013 19:30 5,8 C 84 % 1017,7 hPa 0,0 l/m 0,0 km/h (0 Bft) S 180 3,3 C 11,5 C 0,0 km/h (0 Bft)
16.10.2013 19:35 5,7 C 84 % 1017,7 hPa 0,0 l/m 0,0 km/h (0 Bft) S 180 3,2 C 11,5 C 0,0 km/h (0 Bft)
16.10.2013 19:40 5,5 C 84 % 1017,7 hPa 0,0 l/m 0,0 km/h (0 Bft) S 180 3,0 C 11,5 C 0,0 km/h (0 Bft)
16.10.2013 19:45 5,5 C 85 % 1017,7 hPa 0,0 l/m 0,0 km/h (0 Bft) S 180 3,2 C 11,5 C 0,0 km/h (0 Bft)
16.10.2013 19:50 4,9 C 85 % 1017,6 hPa 0,0 l/m 0,0 km/h (0 Bft) S 180 2,6 C 11,5 C 0,0 km/h (0 Bft)
16.10.2013 19:55 4,7 C 85 % 1017,6 hPa 0,0 l/m 0,0 km/h (0 Bft) S 180 2,4 C 11,5 C 0,0 km/h (0 Bft)
16.10.2013 20:00 4,6 C 86 % 1017,6 hPa 0,0 l/m 0,0 km/h (0 Bft) S 180 2,5 C 11,5 C 0,0 km/h (0 Bft)
16.10.2013 20:05 4,6 C 86 % 1017,6 hPa 0,0 l/m 0,0 km/h (0 Bft) S 180 2,5 C 11,5 C 0,0 km/h (0 Bft)
16.10.2013 20:10 4,4 C 86 % 1017,6 hPa 0,0 l/m 0,0 km/h (0 Bft) S 180 2,3 C 11,5 C 0,0 km/h (0 Bft)
16.10.2013 20:15 4,5 C 87 % 1017,6 hPa 0,0 l/m 0,0 km/h (0 Bft) S 180 2,5 C 11,5 C 0,0 km/h (0 Bft)
16.10.2013 20:20 4,5 C 87 % 1017,6 hPa 0,0 l/m 0,0 km/h (0 Bft) S 180 2,5 C 11,5 C 0,0 km/h (0 Bft)
16.10.2013 20:25 4,5 C 88 % 1017,6 hPa 0,0 l/m 0,0 km/h (0 Bft) S 180 2,7 C 11,5 C 0,0 km/h (0 Bft)
16.10.2013 20:30 4,3 C 88 % 1017,6 hPa 0,0 l/m 0,0 km/h (0 Bft) S 180 2,5 C 11,5 C 0,0 km/h (0 Bft)
16.10.2013 20:35 4,0 C 88 % 1017,6 hPa 0,0 l/m 0,0 km/h (0 Bft) S 180 2,2 C 11,5 C 0,0 km/h (0 Bft)
16.10.2013 20:40 3,8 C 88 % 1017,6 hPa 0,0 l/m 0,0 km/h (0 Bft) S 180 2,0 C 11,5 C 0,0 km/h (0 Bft)
16.10.2013 20:45 3,6 C 88 % 1017,6 hPa 0,0 l/m 0,0 km/h (0 Bft) S 180 1,8 C 11,5 C 0,0 km/h (0 Bft)
16.10.2013 20:50 3,5 C 88 % 1017,8 hPa 0,0 l/m 0,0 km/h (0 Bft) S 180 1,7 C 11,5 C 0,0 km/h (0 Bft)
16.10.2013 20:55 3,4 C 88 % 1017,8 hPa 0,0 l/m 0,0 km/h (0 Bft) S 180 1,6 C 11,5 C 0,0 km/h (0 Bft)
16.10.2013 21:00 3,2 C 88 % 1017,8 hPa 0,0 l/m 0,0 km/h (0 Bft) S 180 1,4 C 11,5 C 0,0 km/h (0 Bft)
16.10.2013 21:05 3,2 C 89 % 1017,8 hPa 0,0 l/m 0,0 km/h (0 Bft) S 180 1,6 C 11,5 C 0,0 km/h (0 Bft)
16.10.2013 21:10 3,3 C 89 % 1017,8 hPa 0,0 l/m 0,0 km/h (0 Bft) S 180 1,7 C 11,5 C 0,0 km/h (0 Bft)
16.10.2013 21:15 3,4 C 89 % 1017,8 hPa 0,0 l/m 0,0 km/h (0 Bft) S 180 1,8 C 11,5 C 0,0 km/h (0 Bft)
16.10.2013 21:20 3,5 C 90 % 1017,8 hPa 0,0 l/m 0,0 km/h (0 Bft) S 180 2,0 C 11,5 C 0,0 km/h (0 Bft)
16.10.2013 21:25 3,4 C 90 % 1017,8 hPa 0,0 l/m 0,0 km/h (0 Bft) S 180 1,9 C 11,5 C 0,0 km/h (0 Bft)
16.10.2013 21:30 3,3 C 90 % 1018,1 hPa 0,0 l/m 0,0 km/h (0 Bft) S 180 1,8 C 11,5 C 0,0 km/h (0 Bft)
16.10.2013 21:35 3,3 C 90 % 1018,1 hPa 0,0 l/m 0,0 km/h (0 Bft) S 180 1,8 C 11,5 C 0,0 km/h (0 Bft)
16.10.2013 21:40 3,4 C 90 % 1018,1 hPa 0,0 l/m 0,0 km/h (0 Bft) S 180 1,9 C 11,5 C 0,0 km/h (0 Bft)
16.10.2013 21:45 3,4 C 90 % 1018,1 hPa 0,0 l/m 0,0 km/h (0 Bft) S 180 1,9 C 11,5 C 0,0 km/h (0 Bft)
16.10.2013 21:50 3,4 C 90 % 1017,9 hPa 0,0 l/m 0,0 km/h (0 Bft) S 180 1,9 C 11,5 C 0,0 km/h (0 Bft)
16.10.2013 21:55 3,2 C 90 % 1017,9 hPa 0,0 l/m 0,0 km/h (0 Bft) S 180 1,7 C 11,5 C 0,0 km/h (0 Bft)
16.10.2013 22:00 3,3 C 90 % 1017,9 hPa 0,0 l/m 0,0 km/h (0 Bft) S 180 1,8 C 11,5 C 0,0 km/h (0 Bft)
16.10.2013 22:05 3,3 C 90 % 1017,9 hPa 0,0 l/m 0,0 km/h (0 Bft) S 180 1,8 C 11,5 C 0,0 km/h (0 Bft)
16.10.2013 22:08 3,2 C 90 % 1017,9 hPa 0,0 l/m 0,0 km/h (0 Bft) S 180 1,7 C 11,5 C 0,0 km/h (0 Bft)
16.10.2013 22:10 3,2 C 90 % 1017,9 hPa 0,0 l/m 0,0 km/h (0 Bft) S 180 1,7 C 11,5 C 0,0 km/h (0 Bft)
16.10.2013 22:15 3,4 C 90 % 1017,9 hPa 0,0 l/m 0,0 km/h (0 Bft) S 180 1,9 C 11,5 C 0,0 km/h (0 Bft)
16.10.2013 22:20 3,5 C 91 % 1017,9 hPa 0,0 l/m 0,0 km/h (0 Bft) S 180 2,2 C 11,5 C 0,0 km/h (0 Bft)
16.10.2013 22:25 3,4 C 91 % 1017,9 hPa 0,0 l/m 0,0 km/h (0 Bft) S 180 2,1 C 11,5 C 0,0 km/h (0 Bft)
16.10.2013 22:30 3,6 C 91 % 1017,6 hPa 0,0 l/m 0,0 km/h (0 Bft) S 180 2,3 C 11,5 C 0,0 km/h (0 Bft)
16.10.2013 22:35 3,8 C 91 % 1017,6 hPa 0,0 l/m 0,0 km/h (0 Bft) S 180 2,5 C 11,5 C 0,0 km/h (0 Bft)
16.10.2013 22:40 3,8 C 91 % 1017,6 hPa 0,0 l/m 0,0 km/h (0 Bft) S 180 2,5 C 11,5 C 0,0 km/h (0 Bft)
16.10.2013 22:45 3,8 C 91 % 1017,6 hPa 0,0 l/m 0,0 km/h (0 Bft) S 180 2,5 C 11,5 C 0,0 km/h (0 Bft)
16.10.2013 22:50 3,8 C 91 % 1017,1 hPa 0,0 l/m 0,0 km/h (0 Bft) S 180 2,5 C 11,5 C 0,0 km/h (0 Bft)
16.10.2013 22:55 3,7 C 91 % 1017,1 hPa 0,0 l/m 0,0 km/h (0 Bft) S 180 2,4 C 11,5 C 0,0 km/h (0 Bft)
16.10.2013 23:00 3,7 C 91 % 1017,1 hPa 0,0 l/m 0,0 km/h (0 Bft) S 180 2,4 C 11,5 C 0,0 km/h (0 Bft)
16.10.2013 23:05 3,5 C 91 % 1017,1 hPa 0,0 l/m 0,2 km/h (0 Bft) S 180 2,2 C 3,8 C 0,0 km/h (0 Bft)
16.10.2013 23:10 3,0 C 91 % 1017,1 hPa 0,0 l/m 0,2 km/h (0 Bft) S-SO 157 1,7 C 3,4 C 0,0 km/h (0 Bft)
16.10.2013 23:15 2,9 C 92 % 1017,1 hPa 0,0 l/m 0,0 km/h (0 Bft) W-NW 292 1,7 C 3,1 C 0,0 km/h (0 Bft)
16.10.2013 23:20 2,9 C 92 % 1017,1 hPa 0,0 l/m 0,0 km/h (0 Bft) W-NW 292 1,7 C 2,9 C 0,0 km/h (0 Bft)
16.10.2013 23:25 3,1 C 92 % 1017,1 hPa 0,0 l/m 0,3 km/h (0 Bft) O-NO 67 1,9 C 2,9 C 3,1 km/h (1 Bft)
16.10.2013 23:30 3,1 C 92 % 1017,1 hPa 0,0 l/m 0,6 km/h (0 Bft) S 180 1,9 C 3,0 C 2,4 km/h (1 Bft)
16.10.2013 23:35 3,1 C 92 % 1017,1 hPa 0,0 l/m 0,5 km/h (0 Bft) SO 135 1,9 C 3,1 C 0,0 km/h (0 Bft)
16.10.2013 23:40 3,0 C 92 % 1017,1 hPa 0,0 l/m 0,2 km/h (0 Bft) S-SO 157 1,8 C 3,0 C 0,0 km/h (0 Bft)
16.10.2013 23:45 2,9 C 93 % 1017,1 hPa 0,0 l/m 0,0 km/h (0 Bft) S 180 1,9 C 2,9 C 0,0 km/h (0 Bft)
16.10.2013 23:50 2,8 C 93 % 1017,1 hPa 0,0 l/m 0,0 km/h (0 Bft) NW 315 1,8 C 2,8 C 0,0 km/h (0 Bft)
16.10.2013 23:55 2,9 C 93 % 1017,1 hPa 0,0 l/m 0,2 km/h (0 Bft) NO 45 1,9 C 2,7 C 2,3 km/h (1 Bft)
_ Min-Zeit 03:50 15:10 04:45 - 23:50 - - 21:00 03:15 23:50
Minimum _ 2,4 C 62 % 1012,1 hPa - 0,0 km/h (0 Bft) - - 1,4 C 1,1 C 0,0 km/h (0 Bft)
_ Max-Zeit 15:25 08:10 13:45 02:35 13:25 - - 10:20 23:00 11:00
Maximum _ 10,6 C 97 % 1018,2 hPa 1,4 l/m 12,6 km/h
W-SW (3 Bft)
- - 6,6 C 11,5 C 21,4 km/h
S (4 Bft)
Durchschnitt _ 5,9 C 86 % 1015,8 hPa #15,1 l/m 3,3 km/h (1 Bft) S - 3,7 C 7,1 C 4,4 km/h (1 Bft)